Regional Weather Roundup
Issued by NWS

Home | Current Version | Previous Version | Graphics & Text | Print | Product List | Glossary On
Versions: 1 2 3 4 5 6 7 8 9 10 11 12 13 14 15 16 17 18 19 20 21 22 23 24 25 26 27 28 29 30 31 32 33 34 35 36 37 38 39 40 41 42 43 44 45 46 47 48 49 50
000
ASUS43 KDTX 241201
RWRMI
MICHIGAN HOURLY REGIONAL WEATHER ROUNDUP
NATIONAL WEATHER SERVICE DETROIT/PONTIAC MI
800 AM EDT WED AUG 24 2016

NOTE: "FAIR" INDICATES FEW OR NO CLOUDS BELOW 12,000 FEET WITH NO
SIGNIFICANT WEATHER AND/OR OBSTRUCTION TO VISIBILITY.

MIZ047>049-052>055-059>063-066>070-074>076-081>083-241300-
SOUTHEAST LOWER MICHIGAN

CITY           SKY/WX    TMP DP  RH WIND       PRES   REMARKS
ADRIAN         MOSUNNY   62  61  96 S3        30.16S
6HR MIN TEMP:  59; 6HR MAX TEMP:  63;

ALMA           PTSUNNY   66  63  91 S5        30.08F
ANN ARBOR      MOSUNNY   61  60  97 S3        30.15S
BAD AXE        SUNNY     64  60  86 S6        30.13F
6HR MIN TEMP:  60; 6HR MAX TEMP:  64;

CARO           SUNNY     63  60  91 CALM      30.12S
DETROIT CITY   SUNNY     69  65  86 S7        30.16F
6HR MIN TEMP:  65; 6HR MAX TEMP:  69;

DETROIT        PTSUNNY   66  62  87 S6        30.16F
6HR MIN TEMP:  63; 6HR MAX TEMP:  67;

FLINT          SUNNY     67  61  81 S6        30.12F
6HR MIN TEMP:  61; 6HR MAX TEMP:  67;

GROSSE ILE     SUNNY     72  65  78 S13       30.15F
6HR MIN TEMP:  68; 6HR MAX TEMP:  72;

HILLSDALE      CLOUDY    64  60  86 S8        30.14F
6HR MIN TEMP:  51; 6HR MAX TEMP:  84;

HOWELL         SUNNY     65  61  88 SE8       30.13F
6HR MIN TEMP:  60; 6HR MAX TEMP:  65;


CITY           SKY/WX    TMP DP  RH WIND       PRES   REMARKS
JACKSON        MOSUNNY   66  61  84 S9        30.12F
6HR MIN TEMP:  61; 6HR MAX TEMP:  66;

LAMBERTVILLE   MOSUNNY   65  60  86 S3        30.16F
6HR MIN TEMP:  59; 6HR MAX TEMP:  65;

LANSING        CLOUDY    67  58  72 S10       30.10F
6HR MIN TEMP:  63; 6HR MAX TEMP:  68;

LAPEER         NOT AVBL
MASON          MOSUNNY   64  60  87 SE6       30.11F
MONROE         SUNNY     66  63  89 S6        30.15F
6HR MIN TEMP:  58; 6HR MAX TEMP:  66;

MT. CLEMENS    MOSUNNY   69  65  85 S6        30.14F
6HR MIN TEMP:  63; 6HR MAX TEMP:  69;

PONTIAC        MOSUNNY   66  60  81 S7        30.14F
6HR MIN TEMP:  63; 6HR MAX TEMP:  66;

PORT HURON     SUNNY     64  64 100 CALM      30.16F
TRI CITIES     SUNNY     65  61  87 S12       30.09F
6HR MIN TEMP:  62; 6HR MAX TEMP:  66;

MIDLAND        FAIR      64  59  81 S5        30.08S
6HR MIN TEMP:  63; 6HR MAX TEMP:  66;

TROY           MOSUNNY   68  60  75 S5        30.17F
SAGINAW HB     SUNNY     64  61  88 S8        30.09F
$$
MIZ043>046-050>051-056>058-064>065-071>073-077>080-241300-
SOUTHWEST LOWER MICHIGAN

CITY           SKY/WX    TMP DP  RH WIND       PRES   REMARKS
BATTLE CREEK   PTSUNNY   65  61  87 S12       30.10F
6HR MIN TEMP:  62; 6HR MAX TEMP:  66;

BENTON HARBOR  PTCLDY    71  62  73 SE8       30.04F
6HR MIN TEMP:  67; 6HR MAX TEMP:  71;

BIG RAPIDS     CLOUDY    66  63  89 SE6       30.03F
6HR MIN TEMP:  58; 6HR MAX TEMP:  66;

COLDWATER      CLOUDY    65  62  89 S7        30.11F
6HR MIN TEMP:  62; 6HR MAX TEMP:  65;

FREMONT        CLOUDY    67  64  90 S6        30.01F
HOLLAND        PTCLDY    67  63  87 S9        30.03F
6HR MIN TEMP:  63; 6HR MAX TEMP:  69; 6HR PCP:  0.04;

GRAND RAPIDS   CLOUDY    67  61  81 S12       30.05F
6HR MIN TEMP:  62; 6HR MAX TEMP:  68; 6HR PCP:  0.02;

IONIA          CLOUDY    64  60  86 SE9       30.06F
6HR MIN TEMP:  60; 6HR MAX TEMP:  64;

KALAMAZOO      PTSUNNY   68  60  75 S8        30.08F
6HR MIN TEMP:  65; 6HR MAX TEMP:  68;

LUDINGTON      CLOUDY    69  67  91 S13G18    29.95F
6HR MIN TEMP:  66; 6HR MAX TEMP:  69; 6HR PCP:  0.02;

MARSHALL       PTSUNNY   66  61  82 S3        30.11F
MOUNT PLEASANT MOSUNNY   65  60  85 S8        30.06F
6HR MIN TEMP:  62; 6HR MAX TEMP:  65;

MUSKEGON       MOCLDY    69  64  84 S9        30.00F
6HR MIN TEMP:  66; 6HR MAX TEMP:  70; 6HR PCP:  0.09;

SOUTH HAVEN    CLEAR     70  64  82 S7        30.03F
$$
MIZ016>042-241300-
NORTHERN LOWER MICHIGAN

CITY           SKY/WX    TMP DP  RH WIND       PRES   REMARKS
ALPENA         MOSUNNY   65  60  84 S7        30.08F
6HR MIN TEMP:  56; 6HR MAX TEMP:  67;

BEAVER ISLAND  HVY RAIN  68  64  87 SE5       29.95F
6HR MIN TEMP:  68; 6HR MAX TEMP:  69;

BELLAIRE       CLOUDY    69  60  71 S7        29.98F
6HR MIN TEMP:  65; 6HR MAX TEMP:  69;

CADILLAC       CLOUDY    65  60  82 S10G16    30.02F
CHARLEVOIX     CLOUDY    67  60  78 SE7       30.02S
6HR MIN TEMP:  65; 6HR MAX TEMP:  68;

FRANKFORT      CLOUDY    68  64  86 S12G18    29.93F
GAYLORD        PTSUNNY   63  57  81 SE8       30.04F
6HR MIN TEMP:  62; 6HR MAX TEMP:  65;

GRAYLING       PTSUNNY   61  59  93 NE6       30.04F
HARBOR SPRINGS CLOUDY    66  60  82 NE3       30.00F
HOUGHTON LAKE  CLOUDY    64  59  83 S12       30.06F
6HR MIN TEMP:  63; 6HR MAX TEMP:  66;

MANISTEE       CLOUDY    67  64  90 SE7       29.94F
OSCODA         CLOUDY    67  64  92 S6        30.09S
6HR MIN TEMP:  58; 6HR MAX TEMP:  67;

PELLSTON       CLOUDY    64  60  87 SE3       30.01F
6HR MIN TEMP:  58; 6HR MAX TEMP:  64;

ROGERS CITY    MOSUNNY   65  60  81 S6        30.07S
TRAVERSE CITY  LGT RAIN  68  61  78 VRB3      29.95F
6HR MIN TEMP:  66; 6HR MAX TEMP:  69; 6HR PCP:  0.02;

$$
MIZ007>008-015-241300-
EASTERN UPPER MICHIGAN

CITY           SKY/WX    TMP DP  RH WIND       PRES   REMARKS
KINROSS        CLOUDY    63  61  93 SE9       30.02S
6HR MIN TEMP:  60; 6HR MAX TEMP:  65;

MACKINAC ISLAN CLOUDY    65  60  85 SE8       30.00F
6HR MIN TEMP:  64; 6HR MAX TEMP:  67;

NEWBERRY       CLOUDY    65  64  97 SE7       29.96F
6HR MIN TEMP:  64; 6HR MAX TEMP:  66;

S. S. MARIE    CLOUDY    63  60  90 E3        30.01F
6HR MIN TEMP:  61; 6HR MAX TEMP:  65;

$$
MIZ004>006-011>014-085-241300-
CENTRAL UPPER MICHIGAN

CITY           SKY/WX    TMP DP  RH WIND       PRES   REMARKS
MANISTIQUE     LGT RAIN  68  66  92 S8        29.93F
6HR MIN TEMP:  64; 6HR MAX TEMP:  68;

ESCANABA       LGT RAIN  68  67  96 S12       29.89F
6HR MIN TEMP:  68; 6HR MAX TEMP:  70; 6HR PCP:  0.13;

MENOMINEE      LGT RAIN N/A N/A N/A S9        29.88F
SAWYER-GWINN   CLOUDY    64  63  94 S8        29.90S
$$
MIZ001>003-009>011-084-241300-
WESTERN UPPER MICHIGAN

CITY           SKY/WX    TMP DP  RH WIND       PRES   REMARKS
IRON MOUNTAIN  CLOUDY    66  63  90 SE9       29.87F FOG
6HR MIN TEMP:  63; 6HR MAX TEMP:  66; 6HR PCP: TRACE;

HOUGHTON       CLOUDY    65  61  87 E5        29.84F
6HR MIN TEMP:  64; 6HR MAX TEMP:  68;

COPPER HARBOR    N/A     68  64  87 SW8       29.84F
6HR MIN TEMP:  67; 6HR MAX TEMP:  72;

IRONWOOD       LGT RAIN  66  64  93 S6        29.83S
6HR MIN TEMP:  66; 6HR MAX TEMP:  70; 6HR PCP:  0.01;

$$

ABBREVIATIONS USED IN REMARKS
   TC - TEMPERATURE IN CELSIUS
  WCI - WIND CHILL INDEX
   HX - HEAT INDEX
  VSB - VISIBILITY





USA.gov is the U.S. government's official web portal to all federal, state and local government web resources and services.